Location: Gulgong NSW 2852, Australia
(32.2976°S, 149.5548°E)
Time: 14:01:17
(UTC+11:00)

Envisat - Pass Details

Date: 05 December 2021
Orbit: 764 x 766 km, 98.2° (Epoch: 27 January)

Event Time Altitude Azimuth Distance (km) Brightness Sun altitude
Rises 04:35:40 0° 36° (NE) 3,220 6.2 -13.6°
Reaches altitude 10° 04:38:07 10° 45° (NE) 2,301 5.6 -13.2°
Maximum altitude 04:42:40 34° 109° (ESE) 1,250 4.8 -12.5°
Drops below altitude 10° 04:47:16 10° 172° (S) 2,327 6.2 -11.7°
Sets 04:49:45 0° 181° (S) 3,260 6.8 -11.2°
